Overview Statistics Trail Chart Weather Telemetry Raw packets
 

This is the latest recevied weather packets stored in our database for station/object KD7DVD-1. If no packets are shown the sender has not sent any weather packets the latest 10 day(s).

<< 1 2 3 4 5 6 7 >>
Time Temp. Humidity Pressure Rain* Wind** Luminosity Snow
1788575416 17.22° C 73% 1014.8 hPa 0 mm - - -
1788573615 17.78° C 71% 1014.7 hPa 0 mm - - -
1788571823 18.33° C 70% 1014.7 hPa 0 mm - - -
1788570022 20° C 64% 1014.1 hPa 0 mm - - -
1788568217 20° C 64% 1013.7 hPa 0 mm - - -
1788566417 20.56° C 57% 1013.5 hPa 0 mm - - -
1788564622 20° C 57% 1013.5 hPa 0 mm - - -
1788562817 20° C 59% 1013.3 hPa 0 mm - - -
1788561017 19.44° C 61% 1013.1 hPa 0 mm - - -
1788559217 18.89° C 63% 1013.1 hPa 0 mm - - -
1788557422 18.89° C 67% 1013 hPa 0 mm - - -
1788555617 18.33° C 70% 1013.1 hPa 0 mm - - -
1788553822 17.78° C 70% 1013.2 hPa 0 mm - - -
1788552022 17.22° C 74% 1013.2 hPa 0 mm - - -
1788550217 16.67° C 77% 1013.1 hPa 0 mm - - -
1788548421 16.11° C 80% 1013.3 hPa 0 mm - - -
1788546621 15.56° C 80% 1013.3 hPa 0 mm - - -
1788544817 15° C 87% 1013.3 hPa 0 mm - - -
1788543021 13.89° C 90% 1013.4 hPa 0 mm - - -
1788541221 13.89° C 92% 1013.2 hPa 0 mm - - -
1788539424 13.33° C 94% 1013.4 hPa 0 mm - - -
1788537622 12.78° C 95% 1013.1 hPa 0 mm - - -
1788535816 12.78° C 96% 1013 hPa 0 mm - - -
1788534024 11.67° C 95% 1012.7 hPa 0 mm - - -
1788532216 11.67° C 95% 1012.4 hPa 0 mm - - -

* Rain latest hour (hover to see other rain measurements)
** Current wind speed in m/s (hover to see current wind gust speed)